カタログに戻る

COSMOS 2491 DEB

運用中PO
NORAD 45130·DEBRIS·🇷🇺 Russia

打ち上げ Dec 25, 2013 から Plesetsk Cosmodrome

Loading…

次のパス (今後24時間)

TLE

古いSource: Space-Track

元期: Aug 23, 2026, 18:50 UTC

1 45130U 13076AC  26235.78535182  .00002100  00000-0  97154-2 0  9998
2 45130  82.4478  57.6162 0158957 317.1261  41.7530 12.72241888303280

AllMySatでCOSMOS 2491 DEBをリアルタイム追跡

Download on the App Store